Location: Gwatt
(46.7204°N, 7.6223°E)
Time: 23:19:33
(UTC+00:00)

Courier 1B Rocket - Pass Details

Date: 29 January 2021
Orbit: 920 x 1202 km, 28.3° (Epoch: 25 February)

Event Time Altitude Azimuth Distance (km) Brightness Sun altitude
Rises 06:16:58 0° 236° (SW) 3,632 7.6 -7.2°
Reaches altitude 10° 06:20:45 10° 214° (SW) 2,733 7.2 -6.6°
Maximum altitude 06:24:22 15° 181° (S) 2,414 7.3 -6.0°
Drops below altitude 10° 06:28:07 10° 147° (SSE) 2,843 8.4 -5.4°
Sets 06:32:11 0° 126° (SE) 3,861 10.0 -4.8°
